This is the latest recevied weather packets stored in our database for station/object JR5VPD-10. If no packets are shown the sender has not sent any weather packets the latest 10 day(s).
| Time | Temp. | Humidity | Pressure | Rain* | Wind** | Luminosity | Snow |
|---|---|---|---|---|---|---|---|
| 1788509172 | 25.56° C | 95% | 1007.4 hPa | 0 mm | 0 m/s | - | - |
| 1788507372 | 26.67° C | 95% | 1007.8 hPa | 0 mm | 0 m/s | - | - |
| 1788505572 | 25.56° C | 97% | 1007.6 hPa | 0 mm | 0 m/s | - | - |
| 1788503772 | 25.56° C | 99% | 1007.6 hPa | 0 mm | 0 m/s | - | - |
| 1788501972 | 25.56° C | 99% | 1007.6 hPa | 0 mm | 0 m/s | - | - |
| 1788500172 | 26.67° C | 99% | 1008.2 hPa | 0 mm | 0 m/s | - | - |
| 1788498372 | 25.56° C | 99% | 1008.1 hPa | 0 mm | 0 m/s | - | - |
| 1788496572 | 25.56° C | 99% | 1007.7 hPa | 0 mm | 0 m/s | - | - |
| 1788494772 | 25.56° C | 97% | 1007.4 hPa | 0 mm | 0 m/s | - | - |
| 1788492972 | 25.56° C | 97% | 1008.2 hPa | 0 mm | 0 m/s | - | - |
| 1788491172 | 26.67° C | 94% | 1008.1 hPa | 0 mm | 0 m/s | - | - |
| 1788489372 | 26.67° C | 92% | 1008.5 hPa | 0 mm | 0 m/s | - | - |
| 1788487572 | 26.67° C | 91% | 1008.1 hPa | 0 mm | 0 m/s | - | - |
| 1788485772 | 26.67° C | 91% | 1008 hPa | 0 mm | 0 m/s | - | - |
| 1788483972 | 26.67° C | 94% | 1008.6 hPa | 0 mm | 0 m/s | - | - |
| 1788482172 | 26.67° C | 92% | 1008.5 hPa | 0 mm | 0 m/s | - | - |
| 1788480372 | 25.56° C | 92% | 1008.1 hPa | 0 mm | 0 m/s | - | - |
| 1788478572 | 26.67° C | 96% | 1008.5 hPa | 0 mm | 0 m/s | - | - |
| 1788476772 | 26.67° C | 93% | 1008.4 hPa | 0 mm | 0 m/s | - | - |
| 1788474988 | 26.67° C | 92% | 1008.9 hPa | 0 mm | 0 m/s | - | - |
| 1788473172 | 26.67° C | 91% | 1009 hPa | 0 mm | 0 m/s | - | - |
| 1788471372 | 26.67° C | 90% | 1008.7 hPa | 0 mm | 0 m/s | - | - |
| 1788469572 | 26.67° C | 88% | 1008.8 hPa | 0 mm | 0 m/s | - | - |
| 1788467772 | 26.67° C | 88% | 1008.2 hPa | 0 mm | 0 m/s | - | - |
| 1788465972 | 26.67° C | 88% | 1008.4 hPa | 0 mm | 0 m/s | - | - |
* Rain latest hour (hover to see other rain measurements)
** Current wind speed in m/s (hover to see current wind gust speed)